Theta_e
332 331 327 327 322 318 315 314 301 307 304 298 300 302 302 308 308 305 305 308 305 316 323 321 319 315 316 318 319 320 328 323 325 316 313 335 346 348 349 351 356 355 355 355 352 351 354 355 355 355 354 354 354 355 355 355 355 355 355 355 355 355 355 354 354 355 355 354 354 353 353 352 351 350 349 349 350 350 350 350 349 348 348 347 347 347 347 347 348 347 346 344 344 345 345 346 345
327 326 323 320 316 315 309 314 303 301 302 299 300 303 304 307 305 304 304 307 310 321 323 321 321 319 322 323 324 324 328 334 336 333 338 343 346 346 350 353 354 353 355 354 350 348 348 355 354 355 354 354 354 354 354 354 355 355 355 355 355 354 354 354 354 354 354 353 353 353 352 351 349 351 351 351 350 350 350 350 349 348 347 347 346 346 346 347 345 344 344 344 343 344 345 346 348
326 318 316 317 315 314 315 312 299 300 298 297 301 303 308 305 305 307 308 314 318 321 322 323 324 321 322 323 320 320 321 336 338 338 337 344 339 343 349 354 356 355 356 354 350 348 347 352 354 355 354 354 354 354 353 354 354 354 354 354 355 354 354 354 354 354 353 353 352 352 352 351 351 351 351 350 350 350 350 349 349 348 347 346 345 344 344 343 343 344 344 344 344 346 345 347 346
321 321 317 315 309 312 306 305 301 299 298 299 301 307 307 306 308 315 317 318 318 317 322 323 319 324 323 317 322 328 329 331 337 337 337 339 341 345 350 354 357 355 355 354 353 349 349 354 354 354 354 354 354 353 353 353 353 353 353 354 354 354 354 354 354 353 353 352 352 352 352 352 352 352 351 351 352 350 349 349 348 347 347 346 345 344 343 342 341 342 342 343 344 345 345 345 346
317 319 318 315 311 307 303 303 302 302 297 300 300 310 310 311 314 315 317 318 320 317 320 325 323 327 335 334 329 323 329 334 335 339 338 344 346 347 351 354 355 355 354 355 354 352 352 354 354 354 354 353 354 353 353 353 353 353 354 354 354 354 353 354 353 353 353 353 353 352 352 352 352 351 351 351 351 350 349 348 348 347 346 345 345 344 343 342 341 342 343 343 344 345 345 346 345
317 317 317 316 309 316 310 302 300 300 303 305 302 306 310 315 315 315 318 316 319 319 320 324 322 320 325 334 335 330 336 329 339 340 340 342 346 348 351 353 355 354 355 356 353 353 351 354 353 353 353 353 353 353 353 353 353 353 354 354 354 354 353 353 353 353 353 353 353 353 353 352 352 352 351 350 350 350 349 348 347 346 346 345 344 343 342 341 341 343 344 344 345 345 346 345 344
314 313 312 310 310 311 302 300 300 302 304 307 305 306 312 315 316 313 317 317 317 319 322 323 327 324 325 331 336 340 344 341 337 339 345 344 347 348 349 350 353 355 356 357 355 351 352 353 353 353 353 353 353 353 353 353 353 353 354 354 354 354 353 353 353 353 353 353 353 353 353 352 352 352 351 351 351 350 349 347 347 346 345 344 343 342 342 341 342 344 344 344 344 345 345 344 344
319 311 311 304 303 304 299 300 300 303 304 306 308 307 309 313 312 312 313 312 315 312 320 326 328 324 326 334 325 336 344 346 343 345 346 346 347 347 349 349 351 354 355 355 354 354 354 352 352 353 353 353 353 353 353 353 353 353 353 354 354 354 354 353 353 353 353 353 353 353 353 352 352 352 352 352 350 349 349 347 347 345 345 343 343 342 342 342 344 345 345 345 344 345 345 344 342
313 312 317 307 301 304 301 300 301 306 306 308 307 309 315 310 310 309 310 314 317 316 320 323 328 322 323 327 330 336 342 346 347 346 346 345 346 347 348 348 348 349 353 356 354 352 352 352 352 353 353 353 353 353 352 353 353 353 353 353 354 353 353 353 353 353 353 353 352 352 352 352 351 351 352 351 350 349 349 348 347 345 344 343 343 343 342 344 345 345 345 344 344 344 344 342 341
311 310 306 303 303 299 300 301 301 303 305 308 307 307 309 310 309 310 309 311 315 316 317 323 329 319 323 325 330 336 341 347 346 344 345 345 347 348 347 347 349 347 351 355 353 351 351 353 351 353 353 353 352 352 352 352 353 353 353 353 353 353 353 353 353 353 353 353 353 352 352 352 352 351 351 351 350 349 349 348 347 346 344 343 343 343 343 345 345 345 345 344 344 344 344 342 342
306 310 310 304 300 297 298 300 302 305 305 308 307 308 309 309 308 308 309 309 316 315 317 324 325 324 323 325 330 344 347 346 344 342 345 346 347 347 346 348 347 345 349 355 352 353 353 352 354 352 353 353 353 353 352 352 353 353 353 353 353 353 353 354 353 353 352 352 352 352 352 352 351 351 349 349 350 349 349 348 347 346 345 344 343 343 344 345 345 345 344 344 344 344 343 343 341
304 306 305 299 299 299 300 300 302 304 306 306 305 308 310 308 308 307 308 307 311 313 316 322 322 326 321 323 329 341 346 344 344 344 346 346 345 347 346 346 346 345 350 353 351 353 351 353 353 353 352 352 352 352 352 352 353 353 353 353 353 353 353 353 353 353 352 351 352 352 351 351 350 350 348 349 348 349 349 348 348 347 346 345 344 344 345 345 345 344 344 344 344 343 343 343 340
305 308 304 300 299 301 302 301 302 303 303 304 306 308 310 308 306 307 308 309 310 313 314 323 325 325 319 321 335 342 342 344 346 346 345 345 345 345 346 346 346 344 345 353 353 351 353 351 351 351 351 353 352 352 352 352 352 352 352 352 353 353 353 353 352 352 352 352 351 349 349 351 349 347 346 348 347 348 348 348 347 347 347 347 346 346 346 345 345 344 344 345 345 344 343 342 338
306 307 306 301 305 302 301 301 303 301 302 306 308 309 310 307 307 308 309 307 308 309 318 322 327 327 324 332 329 337 339 345 346 347 346 346 347 346 347 346 346 344 344 347 349 352 350 351 351 352 351 352 351 352 352 352 352 352 352 352 352 352 352 352 352 352 350 350 348 349 349 349 349 348 348 349 349 348 349 347 347 347 347 347 346 346 345 344 344 345 345 345 344 343 342 340 339
308 310 305 303 301 302 303 300 301 301 301 306 306 308 307 309 309 309 308 307 308 313 320 326 326 323 321 320 324 335 338 343 347 348 348 347 346 347 346 346 346 345 345 346 347 350 351 350 353 351 353 352 352 351 350 353 352 352 352 351 352 352 352 352 352 350 348 348 348 347 347 348 347 347 348 348 348 349 348 346 348 348 347 346 346 346 345 345 345 345 345 344 343 342 341 339 338
310 308 305 301 299 299 301 302 303 301 302 307 308 309 307 309 311 308 310 311 311 316 322 318 327 322 325 320 327 340 343 346 347 349 347 345 346 347 344 344 343 344 345 346 347 347 351 349 350 353 348 352 353 353 350 352 351 351 352 352 352 351 351 351 351 348 347 346 346 345 345 347 348 349 347 349 348 347 348 345 348 347 346 346 345 346 345 345 345 345 344 343 342 341 341 340 338
310 308 301 300 297 300 302 302 303 299 304 308 309 308 305 305 312 312 315 316 312 313 316 319 324 327 324 323 331 340 346 348 346 346 346 343 343 342 344 343 343 344 344 345 346 348 351 351 350 351 348 350 350 351 350 351 351 349 350 351 351 350 349 350 350 348 348 346 345 341 345 347 347 346 348 347 346 348 346 343 348 346 345 346 345 345 345 345 345 344 343 342 341 341 340 339 339
308 302 300 298 301 300 304 303 304 306 304 307 307 307 306 304 309 313 317 314 311 312 313 317 324 328 330 333 341 344 346 346 345 344 341 341 341 340 340 341 342 341 343 343 345 347 350 351 349 349 349 348 349 352 351 347 351 350 351 350 349 351 350 349 350 347 348 350 345 344 346 349 344 345 348 344 347 346 345 343 345 345 346 346 345 345 345 345 345 345 344 343 342 341 341 336 338
304 302 301 298 302 304 307 306 306 304 304 307 307 308 306 306 308 314 311 310 311 308 310 318 322 326 333 339 341 340 346 345 346 343 342 340 340 340 341 340 342 342 342 343 343 345 347 348 349 349 347 347 351 350 350 349 351 349 348 348 350 347 348 347 347 348 344 348 346 347 346 347 347 348 347 346 345 345 343 345 344 345 345 345 346 345 345 345 345 344 344 343 342 341 336 334 337
305 302 299 301 305 306 306 307 306 306 306 305 306 307 306 308 309 316 310 309 311 308 308 314 319 322 331 337 339 342 343 344 341 340 342 341 342 341 342 341 342 342 343 344 343 344 346 344 344 347 348 349 347 348 347 346 349 349 350 351 350 350 349 347 349 348 342 344 346 345 344 345 346 346 345 346 346 345 345 342 343 343 344 344 345 345 345 345 345 344 344 343 342 340 336 335 335
305 302 300 303 306 304 305 306 306 306 306 305 306 307 305 308 310 310 310 310 310 311 312 313 315 325 331 335 338 341 341 341 339 338 340 342 343 344 341 343 341 343 343 345 344 345 345 344 343 345 348 347 344 343 345 346 346 346 347 349 350 348 347 345 349 346 345 341 342 344 344 341 343 344 344 344 345 345 344 346 345 346 344 346 345 342 344 341 344 340 343 343 339 338 336 336 338
305 303 304 305 306 303 306 306 306 306 306 305 305 304 305 309 309 309 311 308 308 311 313 315 319 325 330 333 335 339 340 338 335 332 331 338 340 341 342 342 346 345 345 343 343 343 344 344 344 345 347 346 349 348 348 344 349 347 348 348 348 348 346 344 343 344 344 341 341 342 343 341 340 341 342 342 344 343 343 345 345 345 345 342 344 342 339 343 340 337 339 338 336 337 336 336 338
299 303 304 305 306 303 306 306 306 305 305 305 304 307 308 306 306 309 310 311 316 318 319 316 320 326 328 335 335 335 337 338 338 336 337 339 338 339 341 340 342 343 342 343 344 344 344 343 344 345 342 345 344 346 348 346 347 348 350 346 345 345 343 344 344 346 337 338 341 343 342 342 341 340 339 342 342 341 341 341 341 341 341 340 343 339 342 341 340 338 336 337 337 336 335 336 335
303 300 304 304 305 304 306 305 306 305 305 304 307 308 305 306 303 311 310 314 319 320 323 322 330 330 330 332 336 336 336 338 338 340 340 339 338 340 341 341 342 344 342 343 343 344 344 343 344 344 344 344 343 343 345 346 345 345 344 344 344 344 342 342 339 341 342 344 343 344 345 343 339 339 339 340 343 344 342 342 342 342 343 340 344 343 341 342 342 339 335 335 335 336 334 335 335
301 300 303 304 305 305 306 306 305 306 306 307 307 305 305 306 307 308 310 316 319 319 322 322 326 327 330 331 333 335 334 336 337 337 335 335 337 340 340 340 343 342 341 344 343 342 343 345 345 344 346 348 343 340 342 344 347 343 342 341 338 340 340 341 341 340 337 341 345 344 342 343 342 340 340 340 343 338 339 342 341 341 339 345 343 341 340 345 340 339 337 337 338 336 335 335 333
303 302 304 304 304 305 306 306 306 306 306 307 305 305 306 308 309 307 311 317 318 321 321 325 326 323 324 331 333 332 333 335 335 334 335 336 338 338 338 339 341 341 342 343 343 343 344 344 343 344 348 347 349 348 337 343 344 341 340 339 339 341 341 339 339 338 340 344 344 342 344 344 344 343 343 341 339 340 342 339 340 340 341 342 340 340 342 342 341 341 340 335 332 336 334 334 332
305 304 303 303 304 305 306 305 306 306 306 307 304 304 306 309 307 304 314 318 320 320 322 322 323 325 326 329 331 333 334 334 334 335 335 337 337 337 339 339 338 340 343 342 341 341 342 340 342 342 346 348 347 343 343 344 346 343 343 342 342 341 341 344 341 340 342 341 344 345 344 343 343 344 343 340 341 338 341 340 341 341 341 341 343 339 344 345 343 341 337 335 335 335 334 335 332
305 305 304 304 304 305 306 305 305 306 304 307 306 304 307 308 308 307 313 316 318 321 320 321 323 324 325 328 328 332 333 335 335 335 334 335 335 337 338 338 339 340 341 340 339 341 341 339 339 341 343 345 342 337 339 338 338 338 341 340 343 342 345 340 345 340 340 343 343 346 342 339 339 342 341 341 340 338 338 339 340 340 340 341 343 342 342 346 345 341 339 337 338 340 334 333 335
304 304 300 302 303 302 305 303 304 305 304 307 307 305 303 305 304 309 314 317 317 319 320 318 320 321 324 324 326 331 332 334 334 333 336 337 337 339 338 341 339 339 339 341 340 341 341 341 341 342 343 344 339 337 337 337 336 335 336 336 337 341 340 343 341 341 343 346 345 344 343 344 345 340 344 344 343 341 341 341 341 341 341 345 343 343 344 344 343 342 339 337 337 338 336 334 331
304 304 301 300 301 300 304 305 306 304 306 307 306 296 300 303 307 309 312 315 316 317 316 319 320 321 322 322 328 329 333 332 334 334 336 337 338 339 338 340 340 337 336 339 341 340 341 343 343 342 341 338 339 338 338 334 335 335 335 334 337 337 336 335 339 343 342 343 346 345 346 345 343 343 339 341 343 341 341 341 339 340 341 342 343 344 342 344 342 340 337 335 334 333 332 333 332
299 302 303 298 298 298 304 304 305 302 306 306 306 297 300 304 307 309 312 313 313 313 314 320 318 318 322 324 324 329 332 333 333 333 336 337 337 336 338 339 338 337 336 338 339 339 341 342 342 341 341 340 338 338 334 336 336 335 333 335 338 339 337 335 337 343 343 344 344 343 343 343 344 341 339 343 339 338 340 340 339 338 340 341 340 342 340 342 340 338 337 333 333 332 330 330 331
302 298 296 299 297 300 303 305 304 301 304 307 304 298 300 304 306 309 310 311 312 313 314 316 315 318 322 322 326 326 331 332 331 329 334 336 336 334 336 337 338 337 338 338 339 340 341 342 341 341 342 340 340 340 338 339 336 336 336 335 337 338 335 334 335 336 336 337 337 339 340 342 340 341 340 340 339 339 339 339 339 341 336 338 337 342 339 336 335 336 337 335 331 330 330 329 329
301 298 298 297 298 299 301 303 306 306 305 306 303 298 302 303 307 309 310 310 310 311 313 315 316 317 321 322 321 324 326 328 326 328 334 334 335 335 336 337 337 338 339 338 339 340 341 343 343 342 340 340 340 339 336 336 337 335 336 336 335 335 332 333 332 334 334 334 334 334 338 338 338 340 340 340 341 341 339 337 338 339 340 337 337 338 337 334 336 332 333 335 334 331 330 329 330
297 299 298 300 297 299 298 303 305 306 304 301 303 300 302 303 306 308 309 309 309 309 312 315 317 318 320 321 322 324 325 325 324 330 335 334 333 335 334 335 338 339 338 338 339 339 339 341 341 340 340 339 339 337 338 337 336 335 334 334 334 332 333 332 333 332 333 332 333 334 336 337 338 338 337 337 339 340 338 338 338 340 340 339 335 333 335 336 334 334 332 334 334 333 330 330 330
297 297 298 298 299 300 299 298 302 304 303 301 303 301 302 304 306 307 308 309 309 309 310 313 314 318 321 321 317 319 323 324 325 331 334 332 334 334 333 335 339 340 339 339 339 339 339 339 339 340 339 340 339 338 337 336 335 334 331 331 329 327 330 333 331 332 331 333 333 334 334 335 336 336 335 335 335 335 335 338 339 341 341 339 334 334 334 334 335 334 330 331 332 335 335 335 332
299 299 299 299 297 297 298 302 304 305 302 300 301 300 301 304 305 307 309 309 309 309 312 314 314 315 317 318 320 321 321 322 326 329 331 332 333 335 336 337 340 341 340 340 339 338 337 338 340 339 340 338 337 336 334 331 330 328 327 328 327 330 330 329 331 330 332 330 331 332 331 333 331 332 333 334 334 332 332 333 335 338 339 336 335 332 332 332 331 331 330 333 331 333 334 333 334
301 300 300 299 299 300 302 303 304 306 302 301 302 302 302 304 305 306 308 309 309 309 309 312 314 314 315 317 319 321 323 324 325 325 331 332 334 335 337 338 339 339 339 340 339 336 337 335 338 337 338 337 333 331 329 328 327 326 327 327 325 326 327 329 330 331 331 332 332 329 330 329 329 330 330 330 332 329 329 332 333 333 334 334 334 333 332 332 331 332 334 334 330 329 329 334 333
300 299 298 297 299 297 301 301 305 306 302 299 303 302 302 304 306 306 308 308 306 308 308 310 312 313 314 316 318 318 323 324 321 325 330 331 331 335 336 336 337 336 336 338 336 336 336 336 337 337 335 333 332 331 329 329 329 326 325 325 326 323 322 325 326 330 331 330 330 328 328 328 328 329 330 333 330 330 329 329 330 332 332 332 334 334 337 336 333 332 332 332 333 331 329 332 331
301 298 299 297 298 300 303 304 305 305 303 299 302 300 301 303 305 307 307 307 308 309 309 309 311 311 312 314 315 321 322 322 324 328 330 329 332 334 334 336 337 336 336 335 336 335 335 335 336 337 333 331 330 332 329 327 328 328 327 325 325 325 328 330 328 329 330 327 328 328 329 330 330 329 330 329 330 330 330 329 330 332 332 333 331 332 334 335 335 335 334 333 331 330 330 331 331
300 299 297 295 299 297 295 302 304 304 302 300 301 300 302 304 306 308 309 308 308 310 310 311 312 311 313 313 316 319 318 319 323 323 327 328 331 333 333 334 336 335 335 334 334 333 333 333 335 335 332 331 330 331 329 330 330 331 330 328 327 327 327 330 329 329 327 327 327 329 329 330 329 328 327 327 327 329 329 327 328 328 330 331 330 329 330 330 334 333 331 328 326 325 329 330 334
301 300 299 298 298 299 298 299 303 307 306 305 301 300 299 301 301 303 307 309 309 309 309 311 314 315 315 316 317 319 320 321 321 324 328 328 329 331 331 332 335 333 334 332 333 332 333 332 335 333 331 332 331 329 331 329 329 330 329 329 330 328 325 324 324 323 325 325 325 327 327 329 328 328 328 328 325 326 326 326 325 326 327 327 327 326 327 328 328 329 332 330 329 331 326 330 330
299 302 301 300 301 300 301 302 300 299 298 303 299 292 293 299 301 301 305 306 306 309 308 309 312 313 314 314 316 318 321 320 320 319 326 329 330 331 331 332 332 332 333 333 335 333 334 332 335 333 331 331 330 330 332 328 325 325 324 321 318 319 320 321 321 321 320 323 323 325 327 329 328 328 328 328 327 326 326 325 326 325 325 325 325 324 325 325 325 326 327 328 330 331 331 325 326
296 298 303 302 301 301 301 300 299 293 291 299 304 292 289 299 298 301 303 304 305 307 306 307 308 308 308 310 311 314 317 319 319 320 323 327 329 330 330 330 330 331 333 335 335 334 334 333 336 333 331 330 331 330 330 326 325 325 323 321 319 320 319 322 324 325 324 322 324 327 325 328 327 328 328 327 327 327 328 326 326 325 323 323 322 324 322 322 322 322 324 325 325 327 327 325 325
295 303 303 302 301 299 300 300 299 296 301 302 301 298 293 292 297 301 304 304 304 305 306 307 307 308 308 309 310 312 315 317 319 321 322 326 328 329 329 331 331 330 333 334 335 334 332 333 335 332 331 330 331 331 327 327 325 324 324 322 321 320 321 323 324 325 325 324 324 325 326 325 326 326 325 324 325 325 326 324 323 322 319 318 317 317 317 318 321 321 321 323 324 324 325 324 323
298 303 304 302 301 302 301 300 298 298 296 293 298 300 292 292 297 301 303 301 302 303 305 306 307 308 309 310 310 311 314 317 316 319 322 324 325 328 329 330 332 332 332 333 335 334 333 333 334 332 330 330 331 331 326 327 326 325 324 323 320 323 324 323 323 323 322 324 324 324 325 323 324 325 323 322 322 321 321 320 321 320 320 319 317 317 319 320 321 322 322 322 321 320 322 324 323
304 304 304 304 303 303 302 299 298 298 294 289 295 297 291 291 297 298 301 300 300 302 304 307 308 309 309 310 312 314 314 315 316 317 319 323 326 328 331 331 332 332 333 334 336 334 332 333 333 330 329 329 332 331 327 326 327 326 324 322 322 321 322 321 322 321 322 323 323 324 323 323 323 323 323 321 321 320 321 321 319 319 320 318 317 319 321 321 322 323 323 323 323 322 321 319 319
306 305 301 301 301 301 301 300 298 295 287 291 296 297 295 288 294 297 298 300 302 303 305 307 308 309 309 312 311 311 311 313 313 315 317 319 320 324 329 330 331 332 333 334 334 333 332 333 332 330 329 329 332 330 327 326 327 326 324 323 322 322 321 321 321 321 321 322 321 322 322 322 323 322 321 322 322 322 323 322 321 320 322 322 320 320 321 321 323 323 323 322 322 322 320 321 320
303 301 298 298 297 300 298 297 298 287 285 293 296 297 298 287 292 298 302 304 304 305 305 306 307 308 309 310 310 311 312 313 314 315 317 320 320 320 321 327 330 331 332 333 334 332 331 332 332 329 329 329 331 330 327 325 325 326 326 325 323 324 323 321 322 320 321 321 321 320 321 321 322 323 323 321 322 323 323 322 322 321 321 322 320 321 322 321 322 322 322 322 323 323 324 322 321
300 299 298 292 289 290 286 291 285 286 285 294 296 296 293 292 296 298 301 303 303 304 305 307 307 307 309 309 310 311 312 313 314 316 319 321 321 321 320 322 328 330 330 332 333 332 332 332 331 329 328 328 330 330 327 327 326 326 326 325 324 324 324 322 323 321 322 321 321 320 320 320 321 321 321 322 323 323 323 321 321 320 319 320 321 318 318 320 320 319 321 321 321 320 320 321 319
298 296 295 290 286 284 281 286 288 289 293 297 296 298 291 295 297 302 303 305 305 306 307 307 308 308 309 308 310 311 314 314 315 316 319 320 322 322 322 323 325 328 329 329 331 331 332 332 331 328 328 329 330 330 327 327 326 327 327 326 324 324 322 323 322 322 323 321 322 320 321 320 320 321 322 323 323 323 323 323 323 322 321 321 320 321 321 320 320 317 319 320 320 320 321 320 319
298 300 297 294 292 288 281 285 282 284 286 292 296 291 287 288 293 302 305 305 305 306 306 308 309 309 310 310 310 312 314 316 317 318 319 321 322 323 325 326 328 327 326 328 329 330 331 330 330 328 328 328 329 329 328 327 326 326 326 327 325 325 323 322 321 322 323 321 322 323 322 321 320 321 321 323 324 324 324 324 324 322 320 321 320 321 320 320 320 318 319 320 320 320 319 318 317
299 300 300 294 291 297 287 289 289 289 288 288 291 289 294 296 303 305 305 304 305 305 306 307 307 308 309 309 310 311 314 316 317 318 319 322 324 324 323 324 325 324 325 327 327 328 329 329 330 329 328 328 329 329 328 327 327 327 326 327 327 326 324 323 321 322 323 323 323 323 322 322 322 321 323 323 325 324 325 324 323 322 321 320 321 321 320 319 319 319 318 319 318 318 319 320 319
297 296 292 295 301 297 290 289 295 290 288 285 292 290 296 302 301 303 303 302 303 304 304 305 306 307 309 308 309 311 313 315 317 318 319 321 322 323 322 322 323 324 324 325 326 327 328 329 329 328 328 329 329 330 329 328 328 327 326 326 327 327 326 324 322 323 325 325 324 323 322 321 324 323 323 324 325 324 325 325 323 322 321 321 321 320 320 319 318 318 319 317 318 319 319 317 319
297 292 295 301 303 301 294 286 287 286 283 285 291 286 290 291 288 300 300 300 301 302 303 304 307 307 307 308 309 311 312 315 317 319 320 321 321 321 322 322 323 324 324 325 326 328 329 328 329 328 328 328 329 329 329 328 328 327 327 328 328 328 327 326 324 323 325 325 323 323 323 322 322 323 323 324 325 323 324 324 323 323 322 321 321 320 319 319 319 318 318 318 318 319 317 318 318
297 295 302 293 288 288 294 289 281 282 281 284 287 291 290 292 292 297 298 299 300 301 302 304 304 305 306 307 309 311 312 313 315 317 318 319 320 320 321 321 322 323 324 325 325 327 327 329 329 329 327 329 329 329 329 328 328 327 328 329 329 328 328 327 326 326 326 325 324 323 322 322 324 323 323 325 325 323 324 323 323 323 322 321 320 320 319 320 318 318 317 317 318 317 317 317 318
301 301 297 301 296 292 288 289 291 290 284 283 284 290 286 295 296 299 300 301 301 301 301 303 304 305 307 307 308 309 310 311 312 314 316 318 319 320 319 320 320 322 323 324 324 325 326 327 328 328 328 328 328 328 329 328 328 327 328 329 329 328 327 326 327 326 326 326 325 324 323 323 323 323 323 325 324 322 323 323 322 322 322 320 319 319 319 319 319 319 317 317 316 317 317 316 316
295 296 295 296 297 300 296 297 291 289 284 285 284 283 290 297 301 300 299 301 302 302 302 303 304 305 307 307 308 308 309 310 311 312 313 315 317 319 320 321 320 321 322 323 323 324 324 325 325 326 326 325 326 326 327 327 328 327 327 328 327 326 328 327 327 327 326 326 326 326 324 324 324 323 323 323 323 322 322 323 322 322 321 321 320 319 319 319 318 318 317 317 317 315 315 315 316
298 298 296 296 294 291 288 286 296 292 288 284 283 282 291 300 303 302 301 303 304 304 303 303 304 305 307 308 309 309 309 310 311 311 311 312 313 315 317 318 319 320 321 322 322 322 323 322 323 323 322 324 323 322 322 323 325 325 326 327 327 327 327 327 327 326 326 325 326 326 326 324 324 323 324 322 322 323 322 323 322 321 322 321 320 319 319 319 317 317 317 317 317 314 314 314 316
Wind_Speed
10 9 8 7 7 7 7 7 7 8 9 11 11 9 6 3 2 5 5 1 11 7 5 3 6 2 8 4 7 7 13 9 11 5 4 5 9 10 11 17 17 17 17 16 15 15 15 15 15 15 16 16 15 14 14 16 16 16 15 15 15 14 15 14 14 13 13 13 13 12 13 12 11 11 11 11 10 10 10 9 8 7 7 7 7 8 7 7 7 7 7 7 7 7 8 8 8
8 7 6 6 7 7 6 8 7 7 9 11 12 11 6 5 4 8 10 6 5 5 2 3 3 4 1 1 8 3 12 13 14 11 9 9 9 9 14 16 15 18 16 15 15 15 14 14 14 15 16 16 15 15 16 16 15 14 14 14 15 15 15 15 14 14 13 13 13 13 13 12 12 12 11 11 10 9 9 9 9 8 7 7 7 6 7 7 5 6 7 6 6 7 8 8 8
7 5 7 7 7 8 7 6 9 9 11 11 9 15 4 5 6 5 2 5 5 3 1 3 2 4 2 4 4 7 7 11 12 12 8 11 12 10 15 15 16 16 18 15 14 15 13 14 14 15 15 16 15 15 15 15 15 15 15 15 14 14 14 14 14 14 13 13 13 13 13 12 12 12 11 10 10 9 8 8 8 8 8 6 5 4 4 5 5 6 6 5 7 8 8 8 8
8 7 8 6 6 6 7 7 10 10 10 10 10 4 3 3 2 7 2 3 2 3 1 3 8 5 8 8 1 7 9 9 6 9 8 9 9 13 14 16 15 14 14 13 15 14 13 15 14 14 15 15 15 15 16 16 15 15 15 14 14 14 14 13 14 14 14 14 13 13 13 12 12 12 11 10 8 8 9 8 8 8 8 7 6 5 5 5 4 6 5 6 6 8 9 8 9
8 6 7 7 8 8 7 8 10 10 12 9 10 8 5 3 6 1 5 3 2 4 5 3 4 3 5 8 7 1 7 7 6 7 7 9 12 13 15 14 14 14 14 15 14 14 15 18 15 14 14 15 15 15 15 15 15 16 15 14 14 14 13 13 13 14 14 14 13 13 13 12 11 11 11 10 9 9 9 8 8 8 7 7 6 6 5 3 3 5 5 6 7 8 9 9 9
8 7 7 7 7 7 7 9 10 12 11 10 13 3 2 3 1 2 3 3 1 4 3 5 4 7 6 9 6 7 2 4 9 9 10 9 14 17 16 14 12 13 14 14 14 13 15 16 16 14 14 14 15 14 15 15 15 15 15 15 14 13 13 12 13 13 13 13 13 13 12 12 12 11 10 10 9 9 9 9 8 8 8 8 7 6 6 3 4 5 6 7 8 10 10 10 10
6 6 6 7 9 7 8 10 11 10 12 14 12 9 7 3 4 6 4 3 3 6 3 5 4 6 7 6 9 7 6 5 5 8 7 14 16 15 16 14 14 13 13 11 12 14 18 16 15 14 14 15 15 15 15 15 15 15 15 13 13 13 12 12 12 12 13 13 13 12 12 12 11 11 11 10 9 9 9 9 9 8 8 7 7 6 5 5 5 8 8 8 9 11 11 11 10
8 9 6 8 7 7 10 11 13 10 1 7 5 9 2 4 5 3 3 5 8 9 8 3 5 6 4 4 5 4 6 7 10 9 14 13 14 13 13 14 14 13 12 12 12 14 17 16 15 14 14 13 14 14 14 14 15 14 13 13 12 12 12 12 12 12 12 12 12 12 12 11 11 11 11 10 10 10 10 10 9 9 8 7 7 6 6 6 9 9 10 9 11 10 10 10 10
7 9 4 8 10 7 10 12 12 12 12 4 4 5 5 6 4 6 8 3 4 6 3 6 6 7 2 7 6 5 3 5 10 14 15 15 16 12 10 12 13 15 10 11 13 14 14 15 15 14 14 13 13 13 13 13 12 13 13 13 12 12 12 12 12 12 12 11 12 12 11 11 10 10 10 10 10 10 10 9 10 9 9 8 7 7 6 9 9 9 10 10 10 10 9 10 10
7 7 7 7 6 12 11 11 11 12 12 4 2 6 5 4 6 4 7 6 6 3 8 8 4 5 9 11 6 6 5 9 11 13 15 15 14 13 13 14 13 15 17 13 14 14 12 16 15 15 13 14 13 12 12 12 13 12 13 13 12 13 12 11 11 11 11 12 11 12 11 11 11 10 9 10 10 10 9 9 9 9 9 8 8 7 7 9 9 10 10 9 10 9 9 9 9
8 8 8 8 10 11 11 10 11 13 12 6 7 6 4 1 6 6 5 10 1 5 6 4 9 6 10 7 5 4 9 9 11 14 13 14 13 12 9 12 12 14 17 14 15 13 13 13 16 13 13 12 11 11 11 11 11 10 10 10 10 10 10 10 10 10 9 10 11 11 11 10 10 10 10 9 9 9 9 8 8 9 8 9 8 7 8 9 10 10 9 9 9 9 8 7 6
9 8 7 9 10 10 10 11 14 8 6 1 10 6 4 5 1 7 8 9 6 6 5 10 5 4 10 8 4 8 10 11 11 12 12 13 11 14 11 10 11 13 17 16 15 13 14 12 12 14 12 12 11 11 11 10 10 10 10 9 9 9 9 9 9 9 9 9 9 10 10 10 9 9 9 9 9 8 8 8 7 8 8 8 8 8 9 9 9 9 9 9 9 8 7 6 5
10 7 9 9 9 10 12 14 9 9 7 3 10 9 5 4 7 4 8 9 8 7 9 7 2 7 3 5 4 10 11 11 12 13 12 10 11 11 10 11 12 13 15 16 14 15 14 14 12 12 11 12 11 11 10 10 9 9 8 9 8 8 9 9 9 10 10 10 10 9 9 9 9 8 8 9 9 9 8 8 7 7 7 8 8 8 8 9 9 8 9 9 8 8 7 7 6
9 7 7 10 9 12 11 9 8 9 6 12 7 8 3 4 3 6 7 9 9 10 8 8 7 11 14 6 2 7 8 9 12 12 10 12 10 10 11 11 11 13 12 15 15 13 13 13 12 12 12 11 10 9 9 9 8 8 8 8 8 8 9 9 9 9 9 9 9 8 9 9 9 8 8 8 8 7 6 7 7 8 8 8 8 8 9 8 9 8 8 9 8 7 6 6 6
9 6 8 8 10 11 8 10 11 10 9 4 9 3 0 3 4 7 9 9 10 12 5 9 7 10 5 6 4 7 12 12 10 11 10 12 12 11 12 11 10 11 13 13 15 13 11 12 12 11 11 9 8 7 8 8 9 8 7 8 8 8 8 9 9 8 9 9 8 8 7 9 8 7 6 6 5 6 7 7 6 7 8 8 9 9 9 9 9 9 9 8 8 8 7 7 6
8 7 6 9 10 11 9 11 9 10 9 10 6 3 2 4 5 8 7 9 8 2 4 6 6 7 12 12 13 10 15 13 11 12 12 12 11 11 11 11 10 10 9 12 12 13 10 12 11 9 10 9 9 8 8 9 8 8 8 7 7 7 7 8 8 8 9 8 9 7 6 7 7 6 4 4 4 3 6 5 7 7 8 9 8 9 9 9 9 9 8 8 8 8 8 7 6
7 7 8 9 11 11 8 9 3 9 7 7 6 2 5 4 5 7 6 6 11 8 8 8 8 5 4 3 18 19 16 12 14 15 14 12 10 10 8 8 8 8 7 12 11 10 11 11 12 9 10 10 11 8 8 7 5 6 7 7 6 6 7 7 7 6 8 8 9 4 2 4 2 4 3 4 2 4 5 2 8 7 8 10 9 8 8 9 10 9 9 9 9 8 8 8 7
6 9 8 10 10 12 7 10 6 7 6 5 2 5 4 8 4 2 3 9 11 11 10 8 1 5 10 15 14 16 15 15 15 16 14 12 11 10 9 9 9 8 8 9 11 11 9 9 11 10 9 10 9 7 6 6 7 6 6 7 8 7 6 7 5 7 7 6 10 8 4 2 4 4 4 7 6 7 3 1 3 6 8 10 10 10 9 9 10 10 9 9 9 9 9 7 7
9 8 10 10 9 9 4 4 6 7 6 10 6 3 3 7 3 1 8 8 10 13 12 10 9 10 8 16 17 15 13 15 14 13 14 15 12 13 10 10 8 10 9 7 10 11 9 7 8 10 11 9 8 5 6 4 8 5 6 7 6 7 6 7 7 7 7 5 5 6 3 2 2 2 5 6 6 8 6 7 3 4 5 8 9 9 9 9 9 10 10 9 8 9 7 7 6
10 10 10 10 10 9 2 3 7 6 9 8 7 4 5 5 5 4 9 8 7 12 12 13 11 12 12 13 15 14 14 12 12 10 12 14 11 11 10 10 10 9 9 9 8 10 10 9 6 6 7 9 6 4 6 7 8 6 6 6 5 5 7 6 6 1 3 5 5 5 6 1 3 3 5 7 7 6 4 4 4 4 6 6 9 9 9 9 9 10 10 10 8 7 7 8 5
8 11 10 9 1 6 3 4 4 7 5 7 6 6 8 1 4 6 6 9 10 9 11 11 13 16 13 12 13 12 14 14 8 8 11 12 12 9 10 9 9 9 8 7 7 7 11 13 12 7 9 6 9 6 7 6 8 6 7 7 5 5 5 4 4 4 1 6 2 3 4 4 4 2 3 3 6 6 7 6 6 7 7 7 9 7 7 7 8 7 7 8 7 7 7 6 4
7 8 11 13 8 6 7 6 4 4 5 7 7 8 8 6 9 8 8 10 7 8 10 12 15 18 17 12 10 11 16 15 14 9 8 10 11 9 9 8 8 7 8 7 7 7 8 9 12 12 9 9 6 7 7 7 6 6 4 3 3 2 1 1 2 2 4 3 1 4 4 3 3 4 5 4 5 6 6 6 6 5 5 5 7 7 7 7 7 7 7 7 7 5 6 5 5
9 8 10 11 10 10 5 4 3 3 7 9 8 5 6 7 8 6 7 11 1 3 7 9 10 18 19 16 15 15 15 17 18 16 14 10 11 10 9 8 8 7 6 6 6 6 6 7 9 12 10 7 5 2 3 5 5 4 4 4 2 1 1 2 2 1 5 6 2 2 4 5 4 2 3 5 6 6 7 6 7 8 7 8 5 7 6 5 6 5 5 5 6 5 4 4 5
9 10 8 8 8 9 9 9 7 6 8 9 7 6 8 5 11 2 5 7 3 2 3 7 15 13 13 12 14 14 14 15 15 12 10 9 9 9 9 9 7 7 7 7 6 6 6 7 7 7 10 12 7 2 2 4 5 6 4 4 2 3 1 2 1 1 5 5 4 2 3 3 5 5 5 6 7 4 6 6 4 5 3 3 3 4 5 5 4 4 7 7 6 5 5 5 5
11 12 11 7 8 8 7 8 9 7 7 7 7 9 9 7 9 3 7 2 4 7 4 6 16 11 10 12 11 13 14 13 15 13 10 9 8 9 8 6 7 6 7 8 7 6 7 6 5 5 5 5 11 11 4 3 2 2 3 5 2 4 3 2 2 2 3 4 5 5 5 5 5 6 7 7 3 4 8 3 2 1 4 1 3 3 3 1 2 6 6 6 4 4 4 4 4
14 11 9 6 7 8 9 9 7 8 7 7 8 9 8 8 1 9 4 7 3 4 9 8 11 15 14 11 13 15 15 13 13 14 11 9 10 10 8 7 6 7 8 8 7 6 6 7 6 6 4 4 2 5 10 6 4 2 4 7 7 6 4 4 6 9 6 5 5 7 6 5 4 3 3 3 5 5 3 2 5 6 6 7 5 4 3 4 4 4 6 5 7 4 5 4 4
5 6 8 9 9 9 7 8 8 8 8 6 10 8 9 5 7 6 4 8 5 9 11 10 10 9 11 9 12 12 14 14 14 12 11 10 9 8 8 7 8 8 8 8 7 6 4 6 5 5 5 3 1 2 1 5 4 7 5 5 6 7 9 8 7 6 6 5 5 5 4 3 4 3 3 2 2 6 4 2 5 5 0 7 6 6 3 4 4 4 4 6 5 5 4 3 5
4 6 8 10 11 10 10 8 9 7 9 9 9 9 1 6 9 1 8 8 6 7 13 14 9 10 11 14 12 13 14 12 11 11 12 11 9 9 9 8 8 9 8 7 6 6 5 4 6 3 6 3 2 2 4 4 4 4 5 4 5 6 4 5 5 8 6 5 6 6 5 6 9 5 5 5 6 7 5 6 3 3 4 5 4 4 6 5 4 4 5 5 4 4 4 5 3
9 7 10 11 12 11 10 11 11 9 9 10 8 10 8 9 11 9 5 9 9 7 8 16 13 9 10 12 16 14 13 14 12 11 11 10 9 8 10 9 9 8 7 7 6 7 6 4 5 5 5 3 3 2 3 3 2 1 2 3 5 3 4 1 1 4 6 4 4 5 5 6 4 4 3 4 5 4 2 5 5 5 4 1 4 5 6 5 5 4 5 4 4 4 4 4 5
7 8 10 9 9 11 10 5 4 10 5 8 7 10 10 13 7 6 6 7 8 9 7 10 9 8 9 12 10 13 13 13 13 11 11 10 10 10 10 10 10 9 9 7 8 7 6 5 4 4 4 4 3 3 2 1 2 2 2 1 2 1 1 2 4 3 5 4 4 4 5 4 4 2 3 4 5 6 5 3 5 3 2 3 3 4 5 4 5 5 6 6 5 5 5 4 3
10 9 10 9 8 8 11 8 8 13 11 8 9 11 6 9 10 5 4 5 9 8 12 14 12 11 13 11 12 11 13 12 12 13 13 11 10 11 11 10 10 9 8 9 9 9 7 6 4 4 4 4 3 3 1 2 2 3 2 3 4 3 2 2 2 2 2 3 3 4 4 4 4 5 5 3 2 7 5 4 3 5 4 3 4 3 3 1 1 4 6 6 6 5 6 5 5
8 9 9 8 12 9 9 6 9 12 11 12 11 11 7 9 8 6 5 6 6 8 8 14 8 7 7 9 8 11 12 12 13 14 13 11 11 11 12 12 10 10 10 10 9 8 8 7 5 6 5 5 3 3 2 2 2 2 3 2 2 2 1 1 1 1 2 3 2 2 3 3 4 4 4 4 4 5 6 4 5 3 4 1 5 3 1 1 2 4 5 5 6 6 7 6 6
8 10 5 8 7 9 6 7 9 8 9 10 13 9 7 9 12 7 5 7 8 7 9 13 15 12 10 7 5 8 12 12 14 14 13 12 11 11 11 12 9 9 10 10 10 9 8 8 6 7 6 5 5 4 3 3 2 2 2 3 1 0 1 1 1 1 1 1 2 2 2 2 2 4 2 2 3 4 3 1 5 2 3 2 2 3 2 2 3 3 5 5 7 7 7 8 7
7 7 6 5 9 8 4 9 11 8 8 10 13 12 7 9 6 7 7 7 7 8 7 8 8 15 13 9 9 10 10 11 13 13 13 12 11 12 11 11 10 9 10 10 10 9 8 7 7 6 6 5 5 4 4 3 3 3 3 2 2 3 2 2 2 2 3 3 2 3 2 2 2 2 3 3 2 3 4 3 3 4 3 4 3 4 3 1 1 4 3 5 6 8 7 7 7
6 5 5 4 6 10 5 8 10 9 12 16 13 10 12 9 6 6 8 8 7 7 7 7 11 12 10 12 13 10 9 10 11 12 14 13 13 12 11 12 10 9 8 10 9 8 8 7 7 7 6 6 5 5 5 3 3 2 3 2 3 1 1 3 1 2 2 2 2 3 2 2 2 1 0 1 2 2 3 2 2 2 2 2 4 5 4 3 1 2 5 5 6 7 6 8 6
7 4 5 6 7 8 7 9 9 5 6 11 6 6 12 10 6 10 8 5 6 6 6 5 8 9 13 14 13 12 10 11 8 11 14 12 12 11 10 11 9 9 8 8 10 9 8 8 7 7 7 6 6 5 4 4 4 3 3 3 2 3 3 3 1 3 2 2 3 3 2 1 2 2 2 1 2 3 3 4 3 2 3 6 6 5 3 3 5 6 7 6 7 6 4 4 7
7 5 7 5 7 8 9 9 6 3 7 9 11 8 10 7 5 5 4 7 9 8 9 8 8 9 10 10 14 10 11 11 9 13 14 13 13 11 10 10 10 10 9 9 10 9 9 8 8 8 7 7 6 5 5 4 4 4 3 3 3 2 3 3 2 3 3 5 5 4 3 3 3 3 3 1 1 2 3 4 3 3 4 3 2 6 8 5 5 6 5 4 7 5 5 5 5
8 9 8 9 8 9 3 3 5 3 7 8 11 5 8 8 8 7 7 8 11 11 11 10 10 10 9 11 10 16 10 10 13 12 14 14 12 13 11 10 11 12 10 10 10 10 9 9 9 8 7 7 6 5 4 2 3 3 4 4 3 4 5 4 4 3 3 3 3 3 3 3 2 1 2 3 2 1 3 1 2 3 3 2 2 1 1 1 7 6 4 5 4 3 4 1 3
8 9 8 9 8 7 6 6 3 1 5 9 7 10 10 13 10 8 7 8 8 10 11 11 11 11 10 10 13 12 14 11 12 12 13 14 14 14 11 10 10 11 11 11 10 10 10 9 8 9 7 7 6 5 4 4 2 3 0 4 1 4 5 5 5 4 3 4 3 3 3 2 1 2 2 0 1 2 2 3 0 1 3 3 2 2 2 2 0 3 5 3 3 1 2 1 5
8 8 10 8 8 10 7 6 5 6 7 8 10 7 6 10 9 9 8 10 9 9 10 11 10 11 11 10 9 10 14 12 13 15 16 14 14 13 12 10 10 10 10 10 10 11 9 9 9 9 8 7 7 6 4 6 5 4 5 4 4 3 5 5 4 4 4 4 4 3 4 3 2 2 2 1 1 3 1 0 2 4 3 2 1 2 3 3 3 2 2 3 1 5 3 2 1
10 11 9 8 8 6 9 2 4 1 7 8 10 9 9 11 12 11 11 11 7 8 9 9 9 9 7 7 8 9 11 12 11 11 13 13 14 14 13 12 11 11 11 11 11 10 8 10 10 10 9 8 8 8 6 7 6 5 5 5 5 6 5 4 4 4 4 4 3 3 3 3 3 4 4 4 4 2 2 3 3 2 4 5 5 3 3 5 4 3 4 5 3 2 2 2 2
8 10 10 9 9 6 8 5 7 9 8 10 10 9 10 12 17 14 7 8 9 8 11 13 12 12 9 8 6 2 5 11 11 11 12 12 13 13 13 13 13 12 11 11 11 11 10 10 11 10 9 8 9 10 8 7 6 5 6 6 6 5 5 5 4 5 4 3 4 3 3 2 4 3 3 4 5 4 3 3 2 1 2 2 4 4 3 2 5 8 5 5 4 3 2 4 2
10 5 9 9 11 8 8 10 7 8 9 3 4 9 7 4 5 7 8 9 11 10 10 11 12 12 11 10 10 9 9 6 10 14 13 12 12 12 13 14 14 13 12 11 11 12 12 11 11 11 10 9 10 10 10 7 7 6 7 6 5 5 5 4 5 4 4 4 4 3 4 3 3 3 4 4 3 3 4 4 4 5 4 3 3 4 4 5 5 5 6 6 6 4 2 1 2
7 5 4 7 9 10 9 9 10 9 10 7 10 8 9 9 5 3 2 8 10 10 9 9 9 9 9 9 9 8 8 9 8 8 9 9 10 12 13 13 13 12 12 12 11 12 13 12 12 11 9 10 10 10 11 8 8 7 7 6 6 5 5 6 6 5 4 4 5 4 4 3 3 4 3 3 4 3 3 3 3 3 2 3 3 4 4 5 5 5 5 6 5 5 6 6 3
2 1 4 8 9 6 8 8 9 8 7 9 8 11 11 10 7 5 7 8 9 10 10 7 8 7 6 3 5 5 2 5 7 7 7 8 10 11 11 12 12 13 13 12 12 12 12 12 12 12 10 11 11 12 11 10 8 8 7 6 7 5 7 6 6 5 5 5 5 3 3 4 4 3 4 4 4 5 4 4 3 3 4 3 4 5 5 6 6 6 6 5 5 5 5 4 4
2 5 6 8 8 7 9 9 9 7 7 9 10 6 8 8 7 7 10 10 11 9 9 8 6 6 4 5 4 2 4 4 5 4 3 3 5 7 9 10 12 12 12 12 13 12 13 12 13 13 12 10 11 13 11 11 9 9 8 8 8 7 7 6 6 6 5 5 5 4 4 3 4 4 4 4 4 5 4 4 4 3 4 5 5 5 4 5 5 6 6 5 5 5 5 5 5
6 5 10 8 8 8 8 9 9 7 10 11 13 10 10 8 7 6 4 2 4 6 8 7 5 4 5 3 5 3 3 1 1 1 2 3 3 5 6 10 12 12 11 13 13 13 13 13 14 14 13 10 12 12 12 12 10 9 8 9 8 9 9 7 7 6 6 5 5 5 4 4 3 4 3 3 3 4 3 4 3 3 3 3 3 3 4 4 4 4 4 6 7 6 5 5 5
7 8 8 6 9 8 8 8 7 7 8 11 10 8 8 9 7 5 8 5 1 1 7 4 3 2 3 2 1 1 2 1 1 1 3 3 0 4 8 10 12 13 13 13 12 13 14 13 14 15 13 12 12 12 12 12 10 9 8 9 9 9 9 7 8 8 7 7 6 5 4 4 4 4 4 4 3 3 3 3 2 2 3 2 3 3 3 4 3 4 4 4 4 5 5 5 5
9 9 9 9 6 4 7 7 8 8 7 1 2 6 6 10 8 1 4 5 5 3 2 4 3 2 2 2 1 3 3 2 3 4 3 3 1 2 6 9 10 12 12 13 12 12 13 13 15 16 15 13 12 12 13 13 11 10 9 9 9 9 8 9 8 8 7 6 6 5 5 5 5 5 4 4 4 4 3 3 2 2 2 3 3 3 4 4 3 4 4 5 5 6 5 6 5
10 10 7 8 8 7 8 9 5 6 9 2 3 5 8 6 4 4 8 5 6 5 4 4 3 3 2 2 2 4 5 6 6 6 6 5 4 2 1 6 8 9 11 11 11 11 12 12 14 15 15 13 12 12 13 13 12 10 9 9 9 8 9 8 7 7 7 6 6 6 5 5 5 5 5 4 5 5 3 3 2 2 2 3 2 2 2 2 2 3 4 4 4 4 4 4 5
9 9 9 8 8 6 8 8 7 7 4 4 1 2 3 8 4 4 6 6 6 6 7 6 4 4 4 5 6 7 8 8 7 7 7 6 6 4 2 1 4 7 9 9 10 11 10 11 13 14 14 14 13 12 12 12 11 11 10 9 9 8 8 8 7 7 7 7 6 7 5 4 5 5 5 5 6 5 4 4 3 3 3 2 2 1 2 2 1 2 4 3 3 3 4 4 4
8 7 8 9 8 6 10 5 7 6 4 4 7 4 2 2 8 4 5 7 7 8 8 7 6 5 6 6 6 7 8 8 7 7 8 7 6 5 3 1 3 6 7 7 9 10 10 10 12 13 13 13 12 12 11 11 11 10 11 10 10 9 8 8 8 7 7 7 6 6 6 5 5 5 5 6 7 6 5 5 4 4 3 3 2 2 2 2 1 0 3 2 2 2 2 3 3
1 7 9 7 5 9 6 6 9 2 5 10 5 5 9 6 8 7 8 7 9 8 8 7 8 8 7 7 8 8 9 9 8 8 7 7 7 6 4 4 2 2 3 4 6 7 10 9 10 12 12 11 12 12 11 11 10 11 11 11 10 9 9 9 8 8 8 8 7 7 7 7 6 5 6 6 7 7 6 6 5 5 4 4 3 3 2 1 2 2 2 2 2 2 2 3 2
8 8 5 8 8 7 5 6 2 6 9 6 6 8 9 8 4 9 8 9 9 9 8 9 7 8 8 8 8 9 9 10 10 9 9 9 8 7 5 4 5 4 5 6 6 6 6 8 8 10 10 11 11 10 10 9 10 10 10 10 10 10 9 8 8 8 8 8 8 7 7 7 7 6 6 7 7 8 7 7 6 6 6 5 5 4 4 3 3 3 3 3 3 3 2 3 2
11 10 3 6 3 5 6 4 8 8 9 6 7 10 9 8 6 9 11 10 9 8 8 8 8 8 9 9 10 9 9 9 9 9 9 9 8 7 7 5 5 5 5 5 7 5 5 6 7 8 10 9 8 7 8 8 8 7 7 9 10 10 9 8 8 7 8 8 9 8 8 8 8 8 8 8 9 8 8 8 7 7 7 7 7 6 5 5 5 3 3 3 3 4 4 3 3
12 10 12 7 9 8 7 4 7 7 8 7 5 9 6 4 7 8 7 10 10 9 9 8 8 8 7 8 8 9 9 9 9 10 10 9 9 8 7 7 6 6 6 6 6 5 6 5 5 6 7 7 8 8 7 7 7 7 7 7 8 9 9 9 9 9 8 9 9 9 9 9 9 9 9 10 9 10 10 10 9 9 9 8 8 8 7 7 6 5 5 5 5 5 5 4 4
8 10 9 9 8 5 8 7 8 8 8 8 7 7 5 5 6 7 6 11 9 9 8 9 7 8 9 9 9 9 9 9 9 9 9 10 9 9 8 7 7 6 7 7 7 7 6 4 4 5 5 5 4 3 4 4 4 5 6 7 8 9 9 9 9 9 9 10 9 9 9 9 9 9 9 10 11 11 11 11 11 10 10 9 9 9 8 7 7 7 6 6 6 6 5 5 5
7 5 5 5 7 8 8 9 7 11 9 8 7 8 7 7 3 2 4 3 9 9 9 9 9 9 9 8 9 9 9 9 9 9 9 9 10 10 10 8 7 6 7 7 7 7 8 6 5 4 4 5 5 4 1 4 4 4 5 6 6 6 7 8 8 9 9 9 9 9 9 9 10 10 10 10 11 10 11 11 11 11 11 10 10 10 9 8 8 8 7 5 6 7 6 6 6
Wind_Direction
257 237 248 246 255 258 256 217 247 186 237 244 254 246 280 192 278 279 251 97 250 96 8 314 245 206 255 346 310 55 42 10 18 316 90 144 132 130 134 122 132 133 133 130 132 134 134 125 124 123 124 127 127 123 123 125 122 123 121 120 121 122 125 122 119 117 119 121 121 122 122 121 122 121 116 116 114 117 126 120 125 124 129 136 131 126 119 119 116 112 111 102 101 99 93 99 95
233 241 238 245 242 242 215 216 254 256 211 243 245 254 212 150 84 246 258 220 355 66 14 292 213 271 46 284 288 48 69 61 52 80 108 113 142 136 127 127 136 130 133 132 137 138 137 132 126 124 124 126 129 128 128 128 120 119 120 121 124 126 122 121 121 122 122 122 122 123 124 122 120 115 116 116 117 118 116 117 122 126 129 133 135 138 140 130 120 104 114 112 107 101 101 88 88
266 226 220 220 235 238 297 206 247 241 246 241 235 230 128 200 244 207 258 41 32 24 165 246 338 230 139 278 252 246 111 75 83 81 98 138 150 137 127 131 135 137 131 133 138 139 138 135 129 124 125 126 127 130 129 125 128 129 131 132 126 123 121 122 123 123 125 124 124 123 121 120 119 118 118 120 119 118 112 116 120 120 120 121 122 122 120 115 127 118 110 120 107 105 105 94 88
281 265 260 209 222 206 242 226 239 264 259 257 267 77 161 232 280 23 36 30 21 259 224 160 224 89 275 224 48 85 69 69 71 120 130 157 123 130 132 135 131 131 133 137 139 138 140 132 129 125 124 125 128 130 131 131 132 135 135 130 126 126 126 124 125 125 127 127 125 122 121 121 122 124 122 114 102 106 115 115 116 121 122 122 123 122 120 118 144 137 123 115 119 109 96 91 89
250 234 242 246 270 219 231 239 246 237 246 256 258 99 336 120 27 48 60 354 74 272 237 121 257 138 58 8 17 125 84 91 103 131 118 100 125 132 133 134 133 131 136 137 138 133 132 134 129 126 125 130 131 132 131 131 136 138 135 133 130 130 130 128 128 128 129 128 125 127 126 127 129 128 124 116 104 106 122 122 122 122 119 117 118 116 118 129 150 131 138 116 111 103 99 96 97
236 242 209 255 241 0 282 248 236 242 262 279 263 60 36 25 359 345 119 235 240 246 257 222 263 163 184 45 50 79 8 210 106 99 129 133 142 133 133 131 130 133 134 137 138 135 135 129 129 130 127 131 134 133 132 135 137 142 140 137 134 133 132 133 131 131 130 131 131 131 131 131 133 130 124 122 116 110 115 126 122 120 120 119 118 124 129 141 115 108 106 112 114 106 105 98 95
217 215 193 225 252 251 250 249 249 252 241 236 260 288 48 56 42 280 132 208 189 237 163 234 227 179 176 143 98 65 39 64 175 117 126 139 134 141 141 135 133 129 130 134 138 129 131 127 128 131 133 134 137 138 136 136 141 141 141 135 135 137 138 137 137 136 136 135 135 134 135 136 135 131 131 130 125 120 115 123 123 122 119 123 125 127 138 127 118 104 102 113 112 111 107 100 95
264 260 171 225 236 202 229 250 258 261 119 259 24 293 87 57 312 309 304 285 144 244 175 278 220 209 39 312 79 60 78 356 106 131 123 134 139 140 147 134 131 130 126 129 129 123 125 128 131 133 135 136 140 139 138 139 140 142 142 142 140 141 142 143 141 139 140 141 140 139 139 140 138 138 136 134 133 125 123 128 128 128 130 130 134 136 138 137 114 116 116 119 121 119 117 110 102
226 236 238 253 252 229 240 244 252 237 256 122 242 269 36 297 340 307 277 228 42 245 186 224 203 230 169 81 87 68 58 98 97 128 132 133 141 154 134 131 137 131 128 121 120 124 134 133 135 136 137 140 141 139 136 138 143 144 147 152 147 145 146 146 146 144 144 146 145 144 143 142 142 142 141 138 136 131 130 131 134 137 138 142 140 144 147 123 128 125 127 130 132 132 126 123 115
224 238 199 240 256 250 245 240 241 249 247 297 298 227 206 185 243 251 288 266 222 162 216 223 223 169 157 113 118 168 118 123 130 130 137 144 146 145 134 139 140 132 127 125 135 136 135 142 139 135 137 143 142 139 141 142 147 150 152 151 151 151 150 148 147 149 150 148 149 149 147 145 146 146 144 142 136 139 137 135 139 143 146 145 146 150 143 134 130 134 137 136 138 139 140 136 127
233 198 273 264 239 252 251 254 247 238 230 218 241 261 243 285 272 263 261 278 49 236 177 218 221 184 154 127 108 48 133 132 143 135 140 136 137 126 141 130 136 129 122 135 134 138 140 145 134 129 136 137 134 135 139 144 145 146 150 147 147 149 145 143 147 152 152 152 151 151 150 148 147 147 146 141 140 143 141 140 143 144 148 150 149 152 147 139 139 146 148 147 144 150 150 141 124
245 219 201 244 250 251 247 249 247 252 93 209 260 184 133 257 79 259 241 244 223 226 226 175 221 216 156 161 116 153 151 145 138 139 138 144 148 134 137 132 139 126 127 131 134 141 144 139 141 137 130 132 128 131 138 143 144 146 145 144 141 143 143 142 145 148 152 151 151 150 147 148 146 146 145 140 143 139 145 148 150 150 149 149 152 146 139 144 148 155 155 151 154 156 147 126 110
250 242 227 243 253 249 256 264 290 299 305 276 257 122 95 245 260 253 270 269 267 195 221 173 286 196 14 65 153 146 152 144 143 147 145 142 125 137 136 130 129 130 130 129 136 143 147 148 143 151 134 126 131 135 137 141 142 142 140 141 142 145 151 146 154 153 155 156 149 141 143 144 142 141 143 141 148 147 149 153 158 157 155 151 148 147 146 154 162 162 160 160 156 150 139 129 122
238 249 268 258 254 260 271 282 281 273 250 254 106 108 92 290 264 298 296 272 257 250 182 187 233 111 119 134 146 176 123 138 146 149 149 128 135 131 126 128 132 129 131 140 138 140 147 150 147 147 142 146 146 143 139 132 137 138 137 139 145 147 156 156 155 159 158 151 146 142 145 143 140 142 145 146 144 147 142 154 161 167 160 160 156 152 155 158 161 158 157 158 151 143 136 133 126
253 246 265 270 269 267 243 256 256 252 257 121 90 157 89 229 311 268 266 271 254 262 133 185 222 207 114 160 164 182 149 158 152 148 139 135 139 133 137 135 138 141 146 133 131 139 149 149 143 146 144 146 153 158 164 147 136 137 140 146 143 152 152 159 152 157 159 151 137 143 143 142 136 135 136 140 137 140 152 156 161 168 172 165 161 159 157 156 158 159 156 154 152 150 144 136 138
250 266 255 255 248 255 248 245 239 269 270 98 95 275 274 278 227 248 240 259 283 24 99 184 184 278 157 191 177 147 134 145 158 144 141 142 139 139 138 142 143 137 134 120 134 139 152 146 146 146 142 156 162 158 159 152 146 144 144 153 152 153 155 158 158 157 158 154 145 126 151 133 139 137 132 135 94 127 150 190 147 172 167 172 165 164 163 159 160 163 161 155 153 152 146 143 145
234 262 254 237 252 246 250 260 226 241 259 123 96 84 313 311 87 262 293 291 265 235 198 201 222 227 216 197 136 150 141 148 150 151 147 147 152 145 146 144 141 130 136 139 138 140 149 145 147 148 140 159 162 155 163 141 140 145 156 158 158 161 159 156 164 156 140 154 125 127 114 161 168 160 178 190 166 200 167 113 159 161 170 168 171 170 168 167 168 167 166 162 159 155 157 157 159
221 228 239 245 252 248 251 252 240 15 297 129 104 45 325 277 351 323 244 234 243 249 225 174 143 71 56 90 111 124 146 154 156 159 160 151 157 150 159 150 150 150 152 145 139 146 141 145 152 143 141 165 162 159 155 164 156 173 172 173 183 177 168 160 170 195 168 170 156 122 203 176 185 204 173 214 202 207 199 189 146 169 174 168 168 172 175 176 176 173 170 167 162 166 169 190 175
228 231 235 253 239 249 305 352 324 326 282 329 19 293 8 293 349 344 278 240 211 227 224 161 162 105 85 113 123 136 163 158 158 168 166 157 158 157 159 151 160 153 152 154 149 147 141 137 147 152 158 159 148 154 130 133 154 174 200 183 184 180 179 190 206 200 197 163 175 164 162 184 184 157 197 212 205 194 205 178 153 172 172 179 171 171 172 179 178 179 177 172 172 176 193 226 208
227 255 241 236 260 289 339 333 286 291 308 289 278 302 312 304 274 25 263 279 226 227 212 186 179 136 128 133 137 152 160 153 158 196 167 158 156 159 155 156 152 156 157 154 151 147 147 143 143 145 158 148 148 157 153 166 168 181 190 183 186 186 191 201 209 160 259 206 155 157 152 238 199 196 220 213 227 204 175 164 185 205 199 202 179 177 174 179 183 181 181 177 187 196 220 227 214
192 234 248 254 218 292 251 255 285 275 275 283 289 290 284 196 303 290 285 265 242 244 226 202 181 148 143 145 147 160 155 154 160 202 167 157 156 163 159 153 157 154 152 143 144 148 156 149 150 155 149 144 166 192 182 168 166 188 185 171 185 185 173 220 213 203 231 27 360 20 79 211 169 180 201 231 226 211 208 196 194 213 201 199 179 204 186 186 196 192 187 194 216 212 222 226 219
268 245 254 266 286 246 272 271 261 303 307 293 273 265 266 356 262 240 251 257 251 225 228 217 179 159 145 148 158 173 165 149 163 171 217 169 160 159 149 150 145 151 141 155 152 154 159 159 155 144 155 159 173 164 176 151 183 172 153 164 155 174 129 56 292 172 65 21 116 207 119 195 168 169 203 211 245 243 222 201 189 207 224 218 192 213 198 206 201 214 201 201 222 219 223 223 197
243 229 245 262 272 277 306 325 299 258 263 251 247 261 327 272 293 269 258 260 61 351 295 176 172 147 148 158 174 168 179 164 161 168 186 159 155 152 147 139 147 150 156 138 151 154 163 168 160 150 151 145 182 185 125 141 167 137 152 157 170 76 131 215 243 357 83 250 193 176 170 169 182 203 252 227 224 232 223 195 198 186 198 218 187 222 207 188 226 242 213 205 234 230 238 212 210
250 263 236 224 249 261 255 256 261 260 247 250 255 293 271 288 264 62 265 232 44 98 334 155 87 127 139 156 178 169 167 168 154 157 164 155 152 141 151 138 149 145 158 147 155 154 181 168 166 166 148 161 166 142 217 185 169 155 152 122 141 180 185 207 143 4 157 193 195 169 210 181 193 163 225 241 236 234 252 233 211 143 143 249 212 234 230 201 228 245 257 213 222 213 226 214 220
232 240 259 257 252 260 269 261 250 249 265 263 253 254 257 253 272 299 228 268 139 200 176 175 138 138 156 175 164 175 170 165 146 152 162 167 163 143 158 148 141 148 153 153 149 155 185 156 157 157 141 150 146 164 236 219 112 135 157 124 209 182 220 189 153 166 229 230 190 197 183 224 204 192 195 222 238 245 248 291 250 164 169 219 196 231 239 14 296 300 291 266 236 240 233 223 216
219 250 257 264 257 252 244 243 242 246 245 229 237 242 242 247 270 241 227 146 154 149 179 116 118 144 170 183 173 176 168 163 148 150 155 158 156 164 163 160 148 157 153 146 151 154 178 150 158 148 143 182 138 167 160 217 182 187 217 166 199 155 228 194 205 157 216 209 190 200 201 197 205 208 215 233 249 252 259 189 204 229 192 164 206 208 192 177 177 216 256 238 242 221 235 212 236
6 240 248 261 260 256 243 256 249 239 238 214 235 224 219 194 227 180 152 120 133 198 135 135 142 153 154 176 193 177 163 158 153 146 156 160 156 171 165 153 166 149 149 147 154 153 157 159 151 155 147 144 133 142 130 131 181 157 197 184 150 196 193 210 179 180 188 200 185 188 186 206 254 213 228 221 228 251 250 242 224 215 241 234 194 201 183 211 173 217 232 255 239 218 236 225 199
228 260 268 257 255 244 248 238 246 225 221 214 228 240 179 211 217 274 128 137 167 176 164 141 143 152 177 187 190 177 157 149 152 154 158 167 168 173 171 162 166 143 152 145 149 135 145 168 141 126 111 120 180 185 154 168 162 167 168 207 165 170 181 195 200 141 184 182 180 191 168 208 223 195 222 208 209 227 208 207 238 221 215 224 209 221 209 197 197 211 238 245 281 318 246 237 207
244 245 257 237 225 234 205 231 215 208 217 192 210 237 208 180 231 112 127 144 182 150 163 150 150 167 188 193 197 167 156 156 154 161 167 169 170 170 170 157 154 147 134 144 133 131 135 126 107 118 115 134 127 41 36 10 19 254 161 211 163 155 191 188 167 140 148 162 183 191 201 206 203 202 193 236 248 228 202 248 217 229 228 198 219 213 218 197 210 221 223 234 254 251 252 214 258
246 238 254 252 226 221 177 228 215 203 139 188 192 233 200 200 145 121 142 171 170 183 156 137 135 162 187 199 188 164 155 157 154 166 165 169 165 161 158 152 152 149 140 147 137 139 134 114 121 119 121 116 64 71 22 300 47 9 333 46 26 198 172 196 134 158 144 178 182 186 198 207 202 253 152 230 241 242 225 221 242 258 228 237 232 205 221 208 216 220 224 224 224 240 237 229 214
239 213 221 254 230 196 145 204 165 223 118 208 199 251 213 169 106 123 160 157 190 187 172 137 154 187 194 186 185 163 151 163 160 163 161 165 157 157 150 148 150 142 146 138 144 138 136 125 129 119 120 102 118 87 75 18 52 342 10 35 42 348 49 37 76 119 138 161 175 174 199 200 208 206 213 179 259 270 235 228 242 231 321 285 284 210 249 236 201 249 239 232 223 230 243 226 221
233 227 207 224 249 123 157 186 175 226 146 201 211 241 237 159 142 144 177 198 203 188 188 134 144 194 176 196 193 163 153 164 163 158 159 154 157 151 150 150 157 145 142 144 142 142 136 133 134 126 135 118 106 95 92 50 53 16 43 64 67 336 40 118 131 149 171 157 161 150 170 202 197 215 218 153 213 256 249 225 242 91 238 286 264 273 95 296 266 255 262 257 250 233 233 220 224
212 238 237 212 230 123 173 204 171 272 149 195 219 239 213 157 138 161 170 199 208 217 188 155 167 180 176 199 210 180 159 165 168 158 155 156 156 151 152 151 152 141 140 150 146 148 142 134 138 132 139 128 121 114 106 99 96 103 80 67 52 56 62 12 80 170 150 76 111 121 141 163 163 156 218 193 211 233 264 55 288 247 209 224 270 262 211 195 188 240 273 283 269 255 237 226 217
207 216 241 253 233 192 192 136 200 172 238 184 205 251 263 95 137 168 182 202 197 227 200 177 165 151 184 184 197 175 176 167 163 161 157 162 150 153 154 152 151 147 146 150 149 153 148 143 144 137 133 131 126 125 119 138 129 131 129 93 48 73 34 29 19 19 29 58 25 75 93 90 86 92 173 172 222 251 238 209 205 215 198 208 245 274 248 222 177 226 255 269 274 272 271 255 217
232 184 253 218 259 288 131 194 129 221 192 255 187 224 248 175 182 160 187 194 212 212 215 200 192 161 179 172 192 190 179 177 168 162 169 161 151 154 153 153 155 153 153 153 151 154 147 145 136 136 137 131 128 131 133 116 117 90 86 164 125 129 108 52 350 103 92 74 125 116 78 68 71 59 34 320 256 249 287 250 231 221 222 83 215 253 261 233 226 127 242 249 283 263 264 285 295
334 229 227 237 211 199 253 108 152 276 195 232 252 225 234 226 199 217 179 204 219 214 224 219 205 195 188 192 166 174 183 168 198 173 170 165 158 157 152 154 155 155 156 153 155 155 151 142 142 141 138 137 136 146 159 153 158 153 133 145 143 60 63 92 58 70 85 83 54 47 58 23 45 27 345 307 289 283 275 231 264 263 202 210 152 241 256 220 212 224 227 237 241 269 295 289 282
317 304 306 289 268 223 182 101 82 214 290 254 230 225 281 255 204 261 208 188 222 218 211 212 222 207 201 217 157 166 179 176 177 190 175 168 160 161 155 156 156 156 159 159 161 159 155 155 146 147 143 146 156 161 168 168 160 143 142 109 106 157 111 96 72 63 66 57 32 48 23 43 38 12 338 303 347 4 292 318 314 273 282 260 195 192 206 213 197 215 225 226 231 247 273 286 325
286 270 257 254 232 268 252 197 94 175 254 250 250 229 244 260 227 219 227 225 220 216 217 215 216 214 215 199 200 168 183 160 173 205 181 173 163 164 162 161 162 163 167 170 170 164 160 156 152 145 148 155 157 167 147 139 163 138 162 140 150 146 147 156 122 104 71 72 55 41 37 37 49 67 45 12 355 337 333 291 315 316 306 332 343 316 277 209 180 182 204 226 246 239 253 301 329
259 262 253 253 248 246 70 95 180 168 241 267 230 215 242 244 236 208 207 234 237 219 224 217 217 216 215 207 192 175 156 161 185 191 191 177 168 166 168 167 167 171 166 173 171 167 163 159 156 150 152 156 155 148 152 145 119 95 129 114 144 94 54 54 89 93 105 98 80 72 60 62 24 72 74 358 110 17 7 320 14 154 3 352 349 21 38 71 18 216 185 179 126 85 251 276 249
258 232 246 245 257 249 191 178 223 219 253 271 299 294 236 262 239 219 206 226 226 225 217 222 221 220 219 212 189 185 167 178 183 192 195 178 170 169 171 171 172 172 169 174 173 171 167 166 158 156 152 158 151 152 151 126 118 108 87 106 73 74 108 99 97 101 90 108 99 56 64 37 49 71 83 138 60 66 23 353 357 4 8 342 18 29 40 31 47 107 57 6 12 185 183 134 160
221 254 264 257 246 269 293 113 238 305 241 266 270 259 258 238 243 218 212 218 223 203 221 219 208 223 222 217 205 189 188 170 186 205 195 184 174 174 177 175 172 177 175 176 174 175 172 169 159 159 157 155 152 150 144 134 130 136 121 118 109 101 120 139 145 124 122 104 104 112 90 69 41 54 56 39 63 69 38 24 34 10 16 347 351 17 8 19 17 27 64 121 202 50 90 124 128
238 212 251 271 278 272 245 186 187 225 232 201 230 256 254 243 233 228 197 190 212 205 207 209 205 206 198 215 240 241 224 166 198 214 209 189 185 180 179 176 180 181 178 178 175 176 170 169 160 162 157 157 152 151 145 148 158 156 155 152 152 156 146 155 151 136 142 145 100 100 120 95 66 58 56 50 56 57 60 35 357 59 69 5 3 4 11 33 33 354 34 18 63 73 107 201 137
257 246 206 246 263 254 246 245 232 251 257 142 203 259 266 257 236 216 209 199 210 204 211 205 202 199 199 197 204 202 206 203 205 210 214 195 195 191 182 184 185 183 181 175 174 176 174 169 164 165 159 159 154 155 153 160 163 168 172 163 157 164 147 140 112 130 117 101 115 115 96 98 104 79 52 78 80 63 44 43 19 22 33 32 29 15 31 9 22 26 5 16 5 39 13 113 75
252 353 225 251 235 237 242 261 257 268 282 169 199 243 269 259 223 176 246 212 206 202 200 207 196 189 204 203 205 202 198 200 217 209 213 210 205 200 196 189 189 186 179 175 174 176 175 173 167 168 162 160 159 158 160 168 168 168 177 166 159 165 151 125 133 124 107 114 112 123 122 121 117 93 102 92 106 85 79 76 61 43 40 56 62 61 50 33 30 42 32 15 26 18 12 5 33
323 294 280 248 267 265 262 247 252 265 274 267 239 221 243 255 254 164 191 219 227 216 196 193 215 199 177 225 231 183 163 150 216 225 213 215 209 205 202 197 193 187 183 180 174 176 175 172 168 169 165 161 160 162 162 170 174 169 178 167 166 153 135 142 144 134 129 121 130 131 120 106 98 90 80 88 73 88 90 76 61 50 26 30 69 76 52 51 48 37 32 38 30 34 28 20 12
174 276 259 265 252 250 244 249 251 244 245 252 252 230 264 263 251 209 194 235 242 218 184 194 194 206 189 155 132 149 177 178 194 205 217 227 238 229 206 202 195 194 187 179 174 174 176 170 170 172 168 165 160 164 165 170 175 170 180 172 168 150 150 154 153 139 138 147 139 134 125 130 115 113 114 90 105 96 90 94 77 60 43 38 45 59 74 74 51 53 47 46 39 48 49 42 32
297 274 259 231 239 238 233 246 255 249 239 239 243 246 242 259 246 229 184 278 284 197 163 186 189 174 165 111 226 187 211 161 245 121 154 183 203 239 233 212 200 193 188 182 175 177 175 173 171 173 171 168 162 166 166 169 176 174 184 170 172 156 157 157 148 152 151 164 151 156 159 138 137 119 121 126 98 96 87 75 71 75 70 44 50 57 57 60 69 70 72 65 50 44 51 50 55
250 239 236 253 239 237 241 247 242 257 260 256 249 234 210 250 236 241 139 180 286 47 140 142 137 117 48 36 327 71 49 313 323 36 74 74 145 227 223 217 205 194 191 186 180 177 178 174 172 171 172 172 166 167 168 169 177 178 182 171 173 163 160 163 156 166 160 168 164 166 166 152 151 140 146 140 142 121 120 103 96 83 70 64 53 54 52 71 67 63 54 50 60 61 50 53 46
234 244 236 234 242 224 236 225 223 228 249 335 194 204 226 240 266 155 140 137 147 212 304 125 155 57 69 72 35 48 12 7 31 51 63 61 53 234 229 219 208 198 193 194 184 180 179 176 173 172 173 175 169 169 170 170 177 178 181 174 177 169 171 169 162 169 168 175 172 181 171 172 159 159 170 158 153 163 146 139 149 107 86 55 56 67 58 43 60 75 64 62 53 52 56 46 54
229 236 234 250 245 236 246 239 240 246 235 185 258 60 256 295 258 129 149 104 92 115 109 96 100 86 63 38 83 54 44 35 47 40 43 43 33 15 227 213 205 198 202 205 200 185 180 178 176 176 172 174 170 171 172 172 177 179 180 179 179 172 179 175 177 171 176 184 176 177 187 181 171 169 165 177 155 178 168 158 140 106 92 98 89 72 55 58 37 91 85 72 74 70 64 70 67
243 250 240 241 259 264 253 259 261 261 271 143 203 215 256 247 62 121 95 128 130 137 133 124 109 109 89 62 48 52 48 45 48 49 44 45 50 47 33 194 202 207 208 207 208 199 185 182 180 178 173 173 172 173 174 176 177 179 182 182 183 181 179 182 188 180 178 191 182 173 191 185 181 179 169 177 155 187 167 170 158 148 152 137 114 111 117 104 24 37 86 84 83 71 62 59 60
247 247 261 241 236 251 266 297 302 310 308 259 175 237 237 18 151 119 137 142 137 137 130 135 121 102 92 86 67 60 57 55 51 54 57 54 58 60 70 175 206 210 199 200 208 205 197 186 181 181 177 173 174 173 177 179 179 180 183 187 187 190 185 186 193 186 182 191 189 178 186 189 191 180 172 173 164 187 174 177 172 173 165 168 167 163 191 145 111 96 99 101 100 88 102 107 106
10 256 235 253 287 260 260 263 246 190 255 256 268 221 235 127 196 153 166 149 148 160 149 142 127 109 97 82 76 68 62 59 57 62 60 67 68 62 83 100 141 175 193 205 210 203 201 193 179 179 179 173 177 176 177 180 181 182 185 189 191 193 194 195 196 191 185 185 190 189 185 189 191 185 177 175 175 189 181 184 188 179 181 183 183 187 201 147 182 205 116 127 120 127 119 68 44
274 252 258 285 259 300 284 276 273 249 255 256 229 250 253 220 228 168 188 200 161 169 171 128 127 128 105 91 80 70 66 64 66 69 71 63 64 75 73 79 113 142 160 171 196 195 195 198 181 173 181 175 178 177 180 180 185 186 186 192 195 196 199 201 203 194 192 187 193 193 194 188 194 188 183 178 183 191 187 189 194 186 189 193 187 196 203 177 204 197 152 190 151 144 156 146 143
263 271 17 272 235 230 225 248 253 262 262 269 251 256 259 247 244 157 194 187 172 186 164 152 147 119 107 98 86 77 71 69 66 64 63 69 70 64 73 78 80 89 105 134 143 162 174 188 180 179 181 175 178 180 185 182 186 189 191 194 198 198 201 204 206 206 195 201 198 201 200 196 191 193 190 182 187 193 192 192 201 191 191 195 195 197 203 190 210 191 179 199 160 195 185 165 147
222 261 269 255 266 256 266 253 276 272 265 266 271 261 265 208 232 186 195 181 176 175 178 172 135 116 105 97 93 88 76 68 68 68 68 67 70 75 73 71 91 104 102 103 108 132 132 142 149 163 165 173 179 181 187 188 187 190 195 194 203 207 203 208 207 210 208 209 211 209 205 203 197 197 197 188 193 196 195 196 199 197 195 198 198 200 199 199 203 202 194 202 182 204 198 182 175
226 228 245 243 242 293 291 281 259 256 267 266 277 268 250 23 30 109 191 225 182 174 178 137 126 117 109 102 96 89 86 79 74 73 75 77 78 78 84 96 94 87 96 108 113 102 90 92 118 116 124 127 160 165 181 184 191 207 211 212 207 214 214 210 213 212 218 219 219 217 215 208 202 202 202 197 199 202 200 200 202 202 201 200 202 201 198 204 202 202 201 209 173 206 205 195 183
305 306 286 281 264 245 242 251 239 255 262 267 263 263 274 115 262 283 348 250 156 176 151 138 137 125 112 106 100 100 96 89 85 81 80 82 83 82 83 81 84 107 110 97 93 93 95 102 101 89 125 138 133 95 202 203 203 219 226 225 232 247 240 231 226 224 224 231 227 224 222 217 217 209 209 209 206 206 207 204 209 207 206 205 204 204 201 203 204 202 201 202 187 205 212 201 183